Showing default

KOMPSAT 3, 38338

Orbit data source: Space-Track

KOMPSAT 3, 38338 is a payload satellite owned by KARI (KR) in SSO that was launched on Thu, 17 May 2012 UTC via an H-IIA 202 launch vehicle from the Tanegashima Space Center (TNSTA). Payload-class satellites include a variety of spacecraft equipped with specific instruments for various scientific and technological missions. These include communications satellites like Starlink; space stations such as the ISS; scientific satellites like the Hubble; Earth observation satellites from companies like Planet Labs, Umbra, and HawkEye 360; GPS; miniature CubeSats for education and research; and military/defense satellites.

Loading next visibility...
Identifier
38338, 2012-025B
Orbit
SSO
Country
Flag of KRKR / SKOR
Related business
Manufacturer
KARI
Mission
Operational Civil Imaging
Bus & Motor
KOMPSAT, Unknown motor
Mass
~800 kg wet, ~700 kg dry
Launch date (UTC)
2012-05-17 (14 years ago)
Launch vehicle
H-IIA 202
Launch site
Tanegashima Space Center (TNSTA)
Object type
Payload
Rocket body
Debris
Shape & HBR
Hex Cyl + 3 Pan, 3.5 m
Radar Cross Section
10.510 m², Large (>1 m²)

Expand to show TLE details & history
Last TLE update: 5 hours ago

TLE from 5 hours ago
0 KOMPSAT 3
1 38338U 12025B   26170.29091910  .00000335  00000-0  75840-4 0  9991
2 38338  98.1171 127.7146 0006728 104.0746 256.1203 14.62207732751654
Epoch: 2026-06-19T06:58Z
TLE epoch observation values (Epoch: 2026-06-19T06:58:55.410Z)
Latitude
-0.00008°
Longitude
115.46173°
Altitude
690.188 km
Speed
7.511 km/s
True Right ascension
08h 30m 51s
True Declination
0° 00' 00"
Sunlit
Object was in daylight at epoch
Visualization orbit readout
Latitude
Unknown
Longitude
Unknown
Altitude
Unknown
Speed
Unknown
Apparent Right ascension
Unknown
Apparent Declination
Unknown
Sunlit
N/A
Visualization observer readout
Local Sidereal Time
22:36:00
Azimuth
Unknown
Elevation
Unknown
Doppler factor
Unknown
Orbital elements
Apogee altitude
687.88 km
Perigee altitude
678.378 km
Semi-major axis
7,061.266 km
Eccentricity
0.00067
Inclination
98.1171°
RAAN
127.7146°
Arg. of periapsis
104.0746°
True anomaly
256.04547°
Mean anomaly
256.1203°
Eccentric anomaly
256.08288°
Mean motion
3.65779 °/min
Orbital period
98.42 mins
BSTAR
0.00007584
Loading maneuver chart data...
Computing Atmospheric mass density...

Documentation

Showing up to 5 results
|